Wind_Speed
54 54 48 46 46 46 39 33 36 31 26 29 29 22 19 16 18 19 17 14 14 8 7 9 12 20 32 33 33 32 29 29 30 26 27 26 23 22 20 22 23 21 18 15 17
47 47 54 49 49 47 46 39 40 35 25 27 29 29 26 21 18 15 19 18 16 15 10 8 12 16 29 37 36 34 33 33 30 30 29 27 24 23 23 23 24 22 17 18 18
40 45 52 53 53 51 49 43 40 37 32 28 28 28 26 26 22 20 16 20 18 17 16 11 10 14 23 32 39 37 32 33 31 30 28 28 27 27 24 23 24 25 23 20 19
38 36 42 59 54 53 47 47 44 34 35 33 28 27 29 31 28 26 23 19 21 20 18 17 13 12 18 25 31 38 39 36 35 32 30 32 31 29 26 26 26 25 24 23 24
41 46 46 52 48 55 53 54 51 42 37 37 36 40 34 32 33 31 31 28 25 24 21 18 17 14 15 20 24 29 33 36 37 37 35 33 31 30 28 26 24 24 24 27 33
28 40 51 47 59 58 49 52 52 48 50 41 41 41 41 39 38 37 34 29 29 27 26 22 20 20 18 18 20 25 29 30 30 33 34 34 32 29 27 27 28 29 30 34 30
23 24 49 54 53 58 63 54 52 58 60 51 45 44 44 40 38 34 34 31 30 31 28 25 25 25 25 22 24 23 21 23 27 31 31 31 32 35 32 34 32 31 26 24 26
20 34 34 49 59 63 64 64 63 61 60 54 50 50 53 49 45 40 34 32 31 30 29 32 30 29 29 27 26 26 23 20 20 23 25 26 27 28 31 31 34 28 24 19 18
18 26 32 40 47 64 64 60 61 69 65 58 55 54 53 56 51 45 40 36 33 30 31 34 35 34 33 31 31 29 27 24 22 22 21 21 20 22 23 25 26 26 22 19 17
26 22 32 36 47 52 59 65 64 66 65 62 61 59 58 56 56 50 44 40 37 35 31 33 36 37 39 37 35 33 30 27 24 25 24 24 25 25 24 23 23 25 24 22 19
34 26 25 36 42 54 59 61 57 55 59 65 59 58 62 54 56 53 51 44 41 39 37 33 36 41 40 40 37 36 34 32 32 28 28 29 31 30 30 31 28 28 26 26 27
35 34 33 29 40 49 52 62 62 64 61 66 68 65 60 54 57 54 58 50 45 42 36 37 42 37 35 33 38 38 39 39 36 34 32 31 35 36 36 35 36 35 33 33 29
43 42 37 37 36 46 53 53 57 63 69 66 68 67 64 58 59 54 59 56 49 46 42 42 41 33 32 28 31 37 39 42 41 37 34 33 36 38 38 38 39 40 38 38 35
51 51 49 51 46 42 50 58 55 53 64 72 71 71 65 59 61 59 52 59 54 51 48 45 40 38 36 33 34 34 40 38 37 38 38 36 38 40 41 40 39 42 41 42 42
54 57 55 58 56 52 40 55 62 56 59 65 70 73 69 65 72 62 63 53 60 56 53 53 48 42 42 42 38 37 32 29 35 34 32 38 41 39 40 41 42 43 43 43 45
59 59 61 64 62 60 44 47 60 66 61 62 66 68 73 71 73 68 67 63 63 52 54 57 51 49 47 46 46 45 40 38 38 36 34 33 42 45 44 42 41 42 43 43 44
60 62 68 66 70 65 52 45 56 64 68 64 64 63 65 71 74 72 69 70 70 61 58 61 60 57 54 51 48 49 46 43 36 35 36 37 35 43 45 47 44 44 45 47 47
64 70 75 81 67 62 55 46 52 61 73 71 66 65 64 66 69 73 74 71 67 64 63 63 63 62 62 58 54 51 49 48 45 39 39 41 38 37 41 46 43 42 45 46 47
76 80 88 85 62 59 56 48 52 62 73 75 71 67 66 64 62 65 67 74 72 69 68 68 67 69 66 64 58 56 55 56 54 45 45 43 43 43 39 43 44 43 44 44 46
73 79 85 71 73 57 57 52 55 64 71 79 77 72 68 63 62 57 55 64 68 70 71 71 71 71 71 66 63 64 61 54 50 50 49 46 47 45 45 46 46 46 48 48 50
85 76 73 66 63 62 55 56 59 67 72 79 80 77 72 64 56 56 56 54 63 71 72 74 75 74 73 69 67 68 64 60 57 56 52 47 47 48 50 51 51 53 55 55 56
92 81 66 59 51 55 53 62 63 70 74 78 81 79 75 67 60 55 55 58 53 61 68 72 76 76 72 68 69 68 71 66 60 56 54 51 49 51 54 55 57 56 56 57 57
95 77 61 48 43 44 50 61 66 73 77 80 83 80 76 72 66 59 55 60 57 50 53 65 68 70 68 67 69 67 67 65 62 60 56 53 53 55 55 57 57 57 58 60 62
101 81 57 43 37 35 48 61 70 74 79 81 84 81 75 70 66 62 60 57 56 53 50 48 56 63 68 70 72 70 67 65 64 62 59 56 57 57 58 58 57 57 60 61 64
104 78 50 39 33 30 44 57 68 74 84 86 86 82 75 70 67 65 64 60 53 56 52 46 43 38 44 59 70 70 68 67 66 63 59 58 58 59 58 58 58 58 57 57 59
103 79 49 31 28 29 42 56 68 76 84 82 81 80 76 73 68 65 64 58 50 52 50 45 41 35 35 45 55 63 64 63 62 61 58 58 58 58 57 55 56 56 57 58 59
102 85 53 29 22 29 41 55 66 79 81 82 84 82 80 72 67 64 62 55 51 46 48 44 38 34 34 36 45 51 56 58 58 58 56 55 53 52 52 52 52 54 57 59 61
Wind_Direction
210 210 213 220 222 225 237 237 249 246 243 234 225 222 224 224 225 222 227 232 230 215 225 221 219 213 202 211 215 219 226 230 237 243 244 247 252 255 254 256 258 262 269 284 289
213 208 211 229 215 225 228 238 237 238 239 234 230 233 230 241 215 240 239 231 228 223 208 216 214 218 211 217 217 222 226 231 238 236 239 245 253 257 255 259 264 265 267 273 284
203 219 229 218 214 225 226 233 235 233 240 235 234 235 230 235 241 239 238 231 225 226 219 210 216 208 217 221 223 230 228 227 230 227 234 245 255 260 259 265 272 272 270 263 273
207 211 222 217 221 226 227 229 226 242 235 239 235 242 244 235 237 241 247 245 236 231 228 222 214 213 212 222 225 230 238 240 245 241 247 252 258 259 265 269 274 273 273 274 275
213 214 218 222 221 222 222 223 229 235 240 236 235 238 243 242 241 237 244 250 239 238 234 229 224 218 218 219 223 226 231 236 240 243 246 250 252 258 261 263 259 254 267 278 284
237 234 221 225 224 223 228 232 230 236 237 238 236 239 240 237 240 236 245 246 245 239 235 235 233 230 222 221 223 226 227 228 235 242 243 244 238 240 247 246 253 262 276 281 280
240 241 225 224 225 227 226 227 230 232 235 239 236 235 237 235 234 236 241 245 242 238 238 236 229 230 230 221 223 227 231 232 233 238 241 245 241 236 245 251 259 270 270 273 274
257 239 241 233 228 231 235 234 229 229 236 239 233 232 231 235 238 238 239 230 230 237 235 232 227 227 228 228 224 227 234 231 229 234 238 240 242 244 242 250 262 257 259 265 266
282 255 246 234 230 230 230 229 230 231 237 238 235 233 233 228 234 234 232 226 230 232 229 229 229 228 228 225 231 230 230 233 238 239 237 242 244 242 236 241 254 264 269 266 259
352 293 252 249 241 238 236 239 239 242 240 235 237 233 231 229 229 230 225 225 233 228 229 233 233 232 229 230 228 232 232 233 234 239 239 242 249 256 255 251 253 259 267 267 266
352 340 301 252 244 240 236 237 232 231 235 232 230 233 233 232 232 232 227 227 229 231 231 232 238 237 232 230 233 234 235 235 232 232 238 239 244 249 258 263 264 259 266 275 271
342 336 330 317 261 245 240 234 232 228 233 231 234 236 235 233 232 228 227 221 227 233 227 230 238 241 241 238 237 236 237 235 234 233 237 245 248 251 253 258 263 265 267 269 264
334 333 331 331 320 264 247 239 233 232 233 232 233 236 232 234 231 228 226 223 224 229 227 229 235 236 238 241 245 241 241 240 238 239 238 242 251 254 256 257 260 264 265 268 266
327 326 322 324 318 309 259 246 237 228 231 236 230 231 234 233 232 229 228 226 227 227 228 233 233 235 239 237 241 243 244 246 244 242 243 238 244 249 254 257 258 260 263 266 269
321 322 316 318 318 309 281 249 242 234 229 234 228 233 229 230 231 227 229 226 226 224 226 230 232 236 236 241 244 247 252 250 247 243 245 243 241 248 254 257 261 264 268 267 268
319 318 313 313 309 309 284 252 239 236 232 229 232 230 230 228 230 229 229 230 229 230 231 234 237 240 239 241 245 246 246 253 257 250 246 253 247 244 247 252 258 262 263 265 266
321 319 315 309 307 300 284 257 238 232 232 229 230 228 232 228 232 230 232 234 235 235 230 232 233 236 238 238 242 244 248 250 255 257 257 260 260 254 255 255 256 258 262 264 266
321 320 318 314 300 288 278 256 238 227 229 229 228 228 229 228 230 230 230 233 235 239 237 236 236 236 238 237 238 241 245 247 249 252 265 266 262 262 261 256 262 266 264 265 263
319 318 319 309 291 279 269 255 234 225 226 226 227 228 227 228 228 230 229 231 232 231 230 230 232 236 239 241 242 243 251 254 254 255 267 264 265 263 263 257 259 262 264 266 264
321 320 320 300 287 270 260 247 230 221 221 224 224 225 227 225 226 227 227 228 227 228 230 230 233 236 238 238 243 246 251 251 249 257 261 261 263 260 259 258 255 252 261 265 268
327 327 310 290 276 270 251 239 226 218 217 221 221 222 224 225 224 224 225 229 228 226 228 229 231 232 234 237 241 244 246 248 250 256 260 262 263 261 259 261 259 256 259 265 270
332 331 310 295 279 262 240 232 221 215 214 216 219 219 221 221 223 224 223 226 230 231 228 230 231 232 232 235 239 241 244 249 252 253 255 261 261 260 259 260 261 263 263 265 269
336 332 313 298 279 257 233 229 220 211 211 212 216 217 217 218 220 222 224 225 225 229 232 233 234 234 235 235 236 238 240 243 246 248 252 257 260 260 261 263 267 268 269 272 274
337 338 320 302 280 255 230 227 216 209 207 210 214 214 214 215 217 219 223 226 224 225 228 229 235 238 238 237 237 237 238 241 242 244 248 254 260 261 263 266 268 270 270 272 275
338 340 323 305 281 249 226 223 216 209 206 206 209 210 211 211 213 215 220 223 223 225 227 229 233 239 241 239 241 241 240 241 241 244 247 251 255 259 262 265 268 271 272 273 274
339 341 328 313 275 241 218 214 211 211 207 206 205 208 210 210 213 215 222 223 225 225 225 230 234 241 241 236 236 237 238 241 243 246 248 251 254 258 263 267 269 272 273 276 277
337 342 334 323 274 234 214 211 208 209 207 204 205 205 207 208 210 213 218 220 224 226 229 229 235 244 250 249 237 236 237 239 243 245 248 252 257 261 266 269 272 274 279 282 284
Height
10821 10828 10836 10846 10854 10861 10866 10871 10875 10879 10883 10886 10891 10896 10900 10903 10906 10909 10913 10915 10916 10918 10919 10920 10922 10926 10931 10935 10937 10941 10946 10948 10950 10954 10956 10957 10960 10962 10965 10963 10963 10965 10967 10966 10966
10815 10819 10827 10838 10845 10854 10860 10865 10869 10874 10877 10881 10886 10891 10896 10899 10902 10906 10910 10912 10914 10917 10919 10920 10921 10925 10928 10930 10935 10938 10943 10943 10948 10950 10952 10954 10957 10959 10961 10961 10960 10960 10960 10962 10962
10809 10816 10822 10830 10837 10846 10853 10858 10864 10868 10871 10875 10880 10886 10891 10895 10899 10902 10906 10909 10911 10914 10918 10919 10921 10923 10925 10928 10932 10934 10938 10939 10942 10946 10948 10949 10953 10955 10957 10958 10957 10956 10955 10957 10958
10803 10809 10817 10824 10831 10838 10844 10851 10857 10861 10864 10869 10874 10879 10885 10890 10894 10897 10901 10905 10909 10910 10915 10918 10920 10922 10923 10925 10927 10930 10932 10934 10936 10942 10944 10945 10948 10950 10952 10954 10954 10953 10953 10952 10953
10799 10805 10810 10816 10823 10830 10836 10842 10849 10854 10858 10862 10867 10872 10878 10884 10887 10892 10896 10900 10905 10909 10911 10915 10918 10921 10922 10922 10924 10926 10928 10930 10933 10935 10940 10942 10945 10946 10948 10949 10950 10951 10950 10949 10948
10795 10799 10805 10809 10815 10820 10827 10833 10839 10845 10850 10855 10860 10864 10870 10876 10879 10885 10891 10895 10900 10904 10908 10912 10915 10918 10920 10920 10921 10922 10924 10926 10928 10931 10935 10938 10942 10942 10944 10944 10945 10946 10947 10946 10944
10790 10793 10797 10802 10806 10811 10816 10822 10830 10837 10841 10846 10851 10855 10862 10868 10871 10877 10884 10889 10893 10898 10902 10907 10910 10912 10915 10917 10918 10920 10923 10925 10927 10929 10931 10933 10936 10940 10939 10938 10939 10941 10942 10942 10941
10785 10788 10789 10792 10797 10803 10806 10812 10821 10826 10830 10836 10841 10846 10851 10859 10863 10870 10875 10881 10885 10890 10895 10898 10903 10907 10910 10913 10915 10917 10920 10923 10925 10926 10928 10930 10931 10934 10934 10934 10935 10938 10938 10938 10938
10778 10779 10780 10782 10786 10791 10795 10802 10812 10815 10819 10824 10829 10834 10840 10849 10853 10861 10867 10872 10877 10882 10887 10890 10895 10900 10904 10907 10909 10913 10916 10919 10922 10923 10925 10927 10927 10927 10929 10931 10932 10933 10934 10935 10936
10773 10771 10772 10773 10774 10776 10782 10790 10800 10804 10807 10811 10816 10823 10828 10835 10841 10850 10857 10863 10869 10875 10879 10882 10886 10890 10894 10899 10902 10907 10912 10916 10919 10920 10922 10923 10923 10923 10924 10926 10928 10928 10928 10930 10931
10767 10764 10763 10763 10766 10766 10770 10779 10787 10792 10794 10798 10804 10811 10815 10825 10831 10841 10848 10854 10861 10865 10870 10875 10877 10879 10886 10894 10899 10902 10905 10909 10913 10916 10918 10918 10917 10919 10921 10921 10922 10923 10925 10926 10926
10760 10758 10756 10754 10754 10755 10759 10764 10770 10781 10780 10784 10790 10797 10803 10814 10822 10831 10836 10844 10850 10855 10862 10865 10866 10873 10881 10886 10891 10895 10897 10900 10906 10911 10914 10914 10913 10915 10914 10915 10916 10918 10918 10919 10920
10750 10748 10746 10745 10742 10741 10745 10751 10756 10764 10766 10768 10776 10780 10791 10804 10809 10819 10824 10832 10839 10847 10852 10854 10859 10867 10873 10878 10882 10886 10887 10891 10900 10906 10911 10910 10908 10906 10908 10910 10911 10910 10910 10910 10912
10739 10736 10732 10732 10730 10729 10729 10733 10741 10748 10750 10748 10761 10767 10781 10791 10798 10807 10814 10822 10831 10836 10841 10846 10852 10859 10865 10870 10874 10875 10878 10887 10893 10901 10904 10903 10901 10900 10901 10903 10903 10903 10903 10902 10903
10728 10723 10718 10715 10713 10713 10714 10717 10723 10733 10734 10732 10751 10752 10766 10777 10774 10796 10798 10810 10818 10823 10831 10833 10841 10849 10857 10860 10864 10866 10873 10878 10883 10887 10891 10894 10894 10894 10893 10895 10895 10895 10895 10896 10893
10715 10711 10704 10698 10695 10696 10696 10699 10706 10712 10720 10725 10732 10741 10750 10761 10762 10779 10789 10797 10804 10815 10824 10825 10835 10841 10846 10850 10855 10858 10864 10868 10872 10877 10881 10883 10886 10887 10886 10887 10888 10886 10886 10887 10886
10700 10694 10688 10681 10678 10674 10674 10679 10685 10696 10704 10711 10716 10726 10731 10746 10750 10764 10774 10782 10792 10800 10809 10811 10822 10826 10832 10838 10844 10848 10854 10858 10863 10867 10871 10873 10877 10878 10878 10877 10879 10878 10877 10876 10877
10683 10675 10667 10657 10655 10651 10651 10659 10668 10679 10683 10694 10701 10708 10716 10726 10735 10748 10758 10769 10778 10788 10792 10801 10809 10815 10819 10826 10830 10837 10843 10848 10853 10856 10861 10863 10867 10870 10868 10868 10868 10868 10866 10865 10865
10665 10654 10638 10626 10627 10625 10627 10637 10647 10655 10661 10674 10684 10693 10701 10711 10722 10733 10743 10750 10759 10769 10775 10784 10793 10800 10806 10815 10822 10827 10832 10836 10841 10847 10850 10853 10855 10857 10859 10858 10858 10857 10855 10854 10854
10643 10633 10619 10600 10586 10596 10601 10613 10621 10630 10640 10651 10665 10676 10685 10697 10709 10720 10727 10736 10744 10753 10760 10770 10777 10786 10793 10802 10811 10815 10819 10825 10830 10835 10837 10841 10843 10846 10846 10846 10846 10845 10845 10845 10846
10616 10597 10578 10567 10563 10563 10576 10586 10595 10606 10618 10629 10644 10657 10671 10685 10698 10709 10717 10721 10727 10735 10745 10754 10762 10770 10779 10790 10797 10802 10806 10811 10816 10821 10825 10827 10832 10832 10833 10833 10833 10833 10834 10835 10836
10586 10565 10546 10536 10533 10533 10547 10556 10569 10581 10595 10609 10623 10641 10655 10672 10685 10695 10704 10707 10715 10723 10734 10740 10745 10757 10767 10776 10781 10788 10792 10798 10804 10809 10811 10813 10818 10818 10818 10819 10819 10821 10822 10823 10824
10559 10539 10519 10511 10508 10509 10518 10527 10541 10555 10572 10589 10604 10622 10641 10658 10671 10683 10689 10694 10705 10715 10723 10729 10737 10747 10758 10764 10767 10774 10779 10783 10789 10794 10799 10799 10803 10803 10805 10806 10808 10808 10808 10808 10808
10539 10521 10500 10490 10487 10490 10494 10503 10518 10535 10550 10570 10587 10606 10627 10645 10660 10671 10677 10684 10696 10704 10710 10721 10726 10738 10744 10746 10750 10757 10765 10770 10774 10779 10784 10787 10788 10791 10794 10794 10795 10795 10795 10794 10794
10521 10504 10488 10474 10470 10472 10478 10488 10503 10520 10529 10544 10567 10592 10614 10633 10645 10655 10663 10673 10685 10694 10703 10713 10719 10726 10729 10733 10738 10744 10751 10757 10761 10768 10773 10774 10776 10778 10781 10781 10781 10780 10779 10780 10779
10507 10491 10475 10467 10458 10460 10464 10473 10489 10504 10518 10542 10563 10584 10603 10617 10634 10647 10655 10669 10681 10687 10695 10703 10708 10714 10717 10718 10723 10729 10737 10744 10751 10756 10759 10762 10763 10766 10768 10769 10768 10767 10765 10765 10763
10495 10481 10467 10457 10453 10452 10456 10462 10475 10488 10506 10529 10545 10568 10586 10609 10625 10637 10649 10663 10672 10681 10689 10696 10700 10705 10709 10710 10714 10721 10727 10733 10738 10743 10748 10752 10753 10756 10757 10756 10755 10752 10750 10748 10746